Location: Bois de la Silve
(44.4667°N, 6.7833°E)
Time: 00:22:33
(UTC+00:00)

USA 238 DEB - Pass Details

Date: 26 October 2020
Orbit: 1001 x 1211 km, 63.5° (Epoch: 22 November)

Event Time Altitude Azimuth Distance (km) Brightness Sun altitude
Exits shadow 02:19:36 39° 76° (ENE) 1,526 4.8 -39.7°
Drops below altitude 10° 02:24:14 10° 46° (NE) 2,901 6.6 -39.0°
Sets 02:27:01 0° 41° (NE) 3,891 7.4 -38.5°
